Flag for Germany Weather past 2 weeks in Siegburg, North Rhine-Westphalia, Germany

Now
71 °F

Passing clouds.


Feels Like: 77 °F
Forecast: 59 / 87 °F
Wind: 5 mph from Southwest

Location: Bonn-Hangelar

Current Time: Jul 6, 2015 at 1:28:38 PM

Latest Report: Jul 6, 2015 at 1:00 PM


Visibility: 25 mi

Pressure: 30.17 "Hg

Humidity: 52%

Dew point: 52 °F

Location of SiegburgLocation

Historic Weather in Siegburg — Graph

°F

Siegburg temperature yesterday

Maximum temperature yesterday: 82 °F (at 2:00 PM)
Minimum temperature yesterday: 60 °F (at 11:00 PM)
Average temperature yesterday: 70 °F

Past Weeks' High & Low Weather Summary

 TemperatureHumidityPressure
High94 °F (Jul 2, 4:00 PM)100% (Jun 22, 11:00 PM)30.26 "Hg (Jun 22, 11:00 PM)
Low47 °F (Jun 23, 1:00 AM)32% (Jun 30, 7:00 PM)29.72 "Hg (Jun 22, 8:00 PM)
Average67 °F71%30.08 "Hg
* Reported Jun 21 12:00 Noon — Jul 6 12:00 Noon, Siegburg, Weather by CustomWeather, © 2015

Note: Actual official high and low records may vary slightly from our data, if they occured in-between our weather recording intervals... More about our weather records

Advertising

Siegburg weather history for previous 24 hours

 ConditionsComfort  
Time TempWeatherWind HumidityBarometerVisibility
12:00 PM
Mon, Jul 6
67 °FPassing clouds.5 mph58%30.18 "Hg25 mi
11:00 AM66 °FSunny.6 mph64%30.19 "Hg25 mi
10:00 AM63 °FSunny.6 mph70%30.20 "Hg25 mi
9:00 AM60 °FSunny.5 mph76%30.20 "Hg25 mi
8:00 AM58 °FPassing clouds.5 mph87%30.19 "Hg25 mi
7:00 AM55 °FPassing clouds.5 mph92%30.19 "Hg19 mi
5:00 AM55 °FClear.3 mph91%30.17 "Hg19 mi
4:00 AM56 °FClear.3 mph94%30.16 "Hg16 mi
3:00 AM58 °FClear.6 mph93%30.15 "Hg18 mi
2:00 AM62 °FPassing clouds.7 mph93%30.12 "Hg15 mi
1:00 AM62 °FOvercast.3 mph95%30.10 "Hg10 mi
12:00 AM60 °FOvercast.3 mph97%30.09 "Hg12 mi
11:00 PM
Sun, Jul 5
60 °FPassing clouds.3 mph95%30.07 "Hg17 mi
10:00 PM62 °FOvercast.3 mph95%30.04 "Hg18 mi
9:00 PM64 °FOvercast.2 mph94%30.03 "Hg19 mi
8:00 PM65 °FLow clouds.2 mph92%30.02 "Hg19 mi
7:00 PM67 °FLight rain. Overcast.3 mph79%30.00 "Hg17 mi
6:00 PM70 °FOvercast.9 mph74%30.00 "Hg14 mi
5:00 PM77 °FPassing clouds.7 mph66%29.91 "Hg11 mi
4:00 PM81 °FOvercast.6 mph65%29.91 "Hg12 mi
3:00 PM81 °FOvercast.3 mph67%29.90 "Hg10 mi
2:00 PM82 °FOvercast.2 mph60%29.93 "Hg12 mi
1:00 PM80 °FOvercast.2 mph62%29.95 "Hg16 mi
Weather by CustomWeather, © 2015

See weather overviewHow to use our weather pages